Location: Newark
(25.0000°N, 73.5000°E)
Time: 00:24:35
(UTC+00:00)

Tiros 1 despin weight - Pass Details

Date: 08 March 2021
Orbit: 593 x 641 km, 48.2° (Epoch: 15 April)

Event Time Altitude Azimuth Distance (km) Brightness Sun altitude
Rises 22:43:55 0° 326° (NW) 2,922 - -36.3°
Reaches altitude 10° 22:46:30 10° 338° (NNW) 2,018 - -35.7°
Maximum altitude 22:50:32 29° 38° (NE) 1,181 - -34.8°
Exits shadow 22:52:02 24° 70° (ENE) 1,329 ? -34.5°
Drops below altitude 10° 22:54:35 10° 98° (E) 2,023 ? -33.9°
Sets 22:57:10 0° 110° (ESE) 2,930 ? -33.3°
